Temperature
17 17 17 17 17 17 17 17 17 17 17 17 17 17 17 17 17 17 17 17 17 16 16 16 17 17 17 17 17 17 17 17 17 18 18 17 17 17 17 17 16 16 16
17 17 17 17 17 17 17 17 17 17 17 17 17 17 17 17 17 17 17 16 16 16 16 16 16 16 16 17 17 17 17 17 17 17 17 17 17 17 17 16 16 16 16
17 17 17 17 17 17 17 17 17 17 17 17 17 17 17 16 16 16 16 16 16 16 16 16 16 16 16 16 16 16 16 16 16 16 16 16 16 16 16 16 16 15 15
17 17 17 17 17 17 17 17 17 17 17 17 17 17 17 16 16 16 16 16 16 16 16 16 16 16 16 16 16 16 16 16 16 16 16 16 16 16 16 15 15 15 15
17 17 17 17 17 17 17 17 17 17 17 17 17 16 16 16 16 16 16 16 16 16 15 15 15 15 15 15 15 15 15 15 15 15 15 15 15 15 15 15 15 15 15
17 17 17 17 17 17 17 17 17 17 17 16 16 16 16 16 16 16 16 15 15 15 15 15 15 15 15 15 15 15 15 15 15 15 14 14 14 14 14 14 14 14 14
17 17 17 17 17 17 17 17 16 16 16 16 16 16 16 16 16 15 15 15 15 15 15 15 14 14 14 14 14 14 14 14 14 14 14 14 13 13 13 13 13 13 13
17 17 17 16 16 16 16 16 16 16 16 16 15 15 15 15 15 15 15 15 15 14 14 14 14 14 14 14 14 13 13 13 13 13 13 13 13 12 12 12 12 12 12
17 17 16 16 16 16 16 15 15 15 15 15 15 15 15 15 15 15 15 14 14 14 14 13 13 13 13 13 13 13 13 12 12 12 12 12 12 12 12 12 12 12 11
17 16 16 16 16 16 15 15 15 15 15 14 14 14 14 14 14 14 14 14 14 13 13 13 13 12 12 12 12 12 12 12 12 11 11 11 11 11 11 10 10 10 10
16 16 16 15 15 15 15 15 14 14 14 14 14 14 13 13 13 13 13 13 13 13 12 12 12 12 12 11 11 11 11 11 11 11 10 10 10 10 10 9 9 9 9
15 15 15 15 15 14 14 14 14 14 14 13 13 13 12 12 12 12 12 12 12 12 11 11 11 11 11 11 11 10 10 10 10 10 9 9 9 9 9 9 9 9 9
15 14 14 14 14 14 14 13 13 13 13 13 12 12 12 11 11 11 12 11 11 11 11 10 10 10 10 10 9 9 9 9 9 9 8 8 8 8 8 8 8 8 8
14 13 13 13 13 13 13 13 13 12 12 12 12 11 11 11 11 11 10 10 10 10 9 9 9 9 9 9 8 8 8 8 8 8 7 7 7 7 7 7 7 7 7
13 13 13 13 13 12 12 12 12 12 11 11 11 11 11 10 10 10 10 9 9 9 9 9 9 9 8 8 8 8 7 7 7 7 7 7 7 7 7 6 6 6 6
12 12 12 12 11 11 11 11 11 11 11 11 11 10 10 10 9 9 9 9 8 8 8 8 8 8 8 7 7 7 7 6 6 6 6 6 6 6 6 6 6 6 5
12 12 11 11 11 11 10 11 10 10 10 10 9 9 9 9 8 8 8 8 8 8 8 8 7 7 7 6 6 6 6 6 5 5 5 5 5 5 5 5 5 5 5
11 11 11 11 10 10 10 9 9 9 9 8 8 8 8 8 8 8 8 8 8 8 7 7 7 6 6 6 6 5 5 5 5 5 5 5 4 4 4 4 4 4 4
11 11 10 10 10 9 9 9 9 8 8 8 7 7 7 7 7 7 7 7 7 7 7 6 6 6 5 5 5 5 5 5 4 4 4 4 4 4 4 4 4 4 4
10 10 10 10 10 9 9 9 9 8 8 7 7 7 7 7 7 7 7 6 6 6 6 6 5 5 5 5 5 4 4 4 4 4 3 3 3 3 3 3 3 3 3
10 10 9 9 9 9 9 9 8 8 7 7 7 7 7 7 7 6 6 6 6 5 5 5 5 5 4 4 4 4 4 3 3 3 3 3 3 3 3 3 3 3 3
10 10 9 9 9 9 8 8 8 7 7 7 7 7 7 6 6 6 6 5 5 5 5 5 4 4 4 4 3 3 3 3 3 3 2 2 2 2 3 3 3 3 3
10 9 9 9 9 8 8 8 8 8 7 7 7 7 6 6 6 6 5 5 5 4 4 4 4 4 3 3 3 3 3 3 3 2 2 2 2 2 2 2 2 2 2
10 9 9 9 9 9 8 8 8 8 7 7 7 7 6 6 6 5 5 5 4 4 4 4 3 3 3 3 3 3 3 2 2 2 2 2 2 2 2 2 2 2 2
10 9 9 9 9 8 8 8 8 8 7 7 7 7 6 6 6 5 5 5 4 4 4 4 3 3 3 3 3 2 2 2 2 2 2 2 2 2 2 2 2 2 2
10 9 9 9 9 8 8 8 8 7 7 7 7 6 6 6 6 5 5 5 4 4 4 3 3 3 3 3 2 2 2 2 2 2 2 2 2 2 1 2 2 2 2
Wind_Speed
7 7 6 6 7 7 6 6 5 5 5 5 5 6 6 6 6 5 5 4 5 4 4 3 3 3 3 3 2 2 2 2 3 3 1 0 2 1 3 4 5 7 9
7 7 6 6 6 7 6 6 6 6 5 5 5 5 6 6 6 6 6 5 5 4 4 3 3 3 3 2 3 3 2 2 2 3 2 1 1 2 3 3 4 5 6
7 7 6 6 6 6 6 6 6 6 5 5 5 5 5 5 6 6 5 4 4 4 4 3 2 2 2 2 2 3 3 3 2 2 3 2 1 1 1 2 2 2 5
7 7 6 6 5 5 5 5 5 5 5 5 5 4 4 4 4 4 4 4 3 3 3 2 2 1 2 2 3 3 3 3 2 2 2 2 1 1 1 1 2 2 3
5 5 6 5 5 4 4 4 4 4 5 4 4 3 3 3 3 3 3 4 3 2 2 2 2 2 3 1 1 1 2 2 2 1 1 1 2 2 2 2 2 3 2
5 5 5 4 4 4 4 4 4 5 4 4 4 3 3 3 2 3 3 3 4 3 2 2 2 4 4 4 3 3 2 0 0 1 1 2 2 3 3 3 3 3 3
4 4 4 4 5 4 5 4 4 4 4 5 4 4 3 1 3 4 3 3 3 3 2 2 2 2 3 2 2 3 4 4 3 2 2 2 2 4 3 3 3 3 3
4 4 4 4 4 4 4 4 4 3 4 4 4 4 4 3 4 4 5 4 4 3 3 3 3 4 3 2 2 3 3 4 3 3 4 3 3 3 3 3 4 4 3
3 3 3 4 4 5 4 4 5 5 5 5 4 5 5 4 4 3 4 4 5 5 5 5 5 5 6 4 3 3 4 4 7 8 7 5 5 6 6 4 5 4 4
3 3 3 4 4 4 5 5 5 5 6 6 6 6 6 6 7 6 4 4 6 6 7 8 11 9 8 7 4 4 4 3 3 3 3 3 3 5 7 5 4 4 4
4 5 5 4 5 5 5 5 6 7 8 7 8 8 8 8 9 10 8 4 5 6 6 6 7 10 11 10 8 6 4 2 2 2 2 3 3 4 5 5 4 2 3
7 7 7 6 5 5 6 6 6 7 8 7 8 8 7 7 9 10 11 9 8 9 7 6 6 10 11 10 8 7 7 5 2 3 3 4 4 3 3 3 4 3 2
8 8 8 9 8 7 7 6 6 5 6 6 6 7 7 7 8 12 12 12 12 9 8 9 8 8 8 7 8 8 6 4 4 4 4 4 3 2 2 2 3 4 5
9 8 8 9 10 10 8 7 7 5 6 6 6 7 7 7 6 6 6 8 10 9 7 7 6 5 5 5 5 5 5 6 5 5 4 4 4 3 3 3 4 4 4
9 9 9 10 11 12 12 11 10 9 6 6 6 6 7 7 6 7 7 6 5 5 3 3 3 4 4 5 5 5 6 6 5 5 5 4 4 5 4 4 4 4 5
9 9 9 9 10 10 12 13 20 16 19 19 15 12 10 10 10 11 12 10 8 6 5 5 6 6 6 6 5 6 6 6 6 5 5 5 5 5 5 5 5 5 5
9 9 9 9 9 10 10 11 12 14 19 19 17 15 13 11 11 10 9 8 6 5 6 6 6 6 6 6 6 6 6 5 5 5 5 5 5 5 4 5 5 5 5
11 11 10 9 9 9 9 10 10 10 10 10 10 12 12 11 9 8 7 5 5 6 6 6 6 6 6 6 6 6 5 5 5 5 5 5 5 5 5 5 5 5 5
10 8 9 9 9 9 9 9 10 11 10 9 7 6 6 6 7 6 5 5 6 7 7 7 6 6 6 6 5 5 5 5 5 4 5 5 5 5 5 5 5 6 5
9 12 10 9 9 9 8 9 9 9 9 8 7 6 4 4 5 5 5 6 7 7 7 7 6 6 6 5 5 5 5 5 6 6 6 5 5 5 6 6 6 6 5
10 10 10 9 9 9 9 9 8 8 8 8 7 6 4 4 6 7 7 6 7 7 6 5 5 6 6 5 5 6 7 7 7 7 6 6 6 5 5 5 5 6 6
8 8 8 8 8 8 8 7 8 8 8 9 7 6 5 5 6 7 7 7 6 6 6 5 5 6 6 6 6 7 8 8 8 8 7 7 6 6 5 5 6 6 6
8 9 8 9 8 8 7 7 7 6 7 7 7 6 6 5 6 6 6 6 5 6 7 7 6 7 9 10 11 10 8 7 7 8 8 8 8 7 6 6 7 7 7
8 9 9 8 7 7 7 7 6 7 7 6 6 6 6 5 6 6 6 5 5 6 6 7 8 9 10 10 10 10 9 9 9 10 10 9 9 7 6 6 7 8 7
7 8 8 7 7 7 7 6 6 6 6 5 5 5 5 5 5 5 5 5 5 5 6 6 7 8 9 10 9 8 8 10 10 10 10 10 9 7 7 8 7 7 7
7 7 7 7 7 7 6 6 6 5 5 5 5 5 4 5 5 4 4 3 3 4 4 5 6 7 7 8 7 6 7 9 11 12 11 10 9 6 7 7 9 8 8
Wind_Direction
174 180 181 185 187 192 195 192 182 172 170 176 184 185 184 185 188 196 218 196 191 208 221 212 208 250 298 311 296 271 268 269 264 274 266 145 136 133 151 217 221 206 214
167 169 176 181 180 184 187 180 169 167 174 180 189 193 192 189 188 195 214 207 194 207 219 227 220 227 232 275 303 303 289 272 259 275 292 321 187 206 200 223 239 236 228
166 167 169 179 179 183 179 173 169 166 170 176 182 191 195 191 191 196 204 215 202 202 204 209 211 235 232 247 261 285 303 296 283 262 273 270 246 253 218 240 252 267 272
166 168 171 175 175 175 173 172 168 164 168 177 180 184 190 191 192 189 192 208 211 201 189 177 169 200 228 245 257 263 272 285 294 286 283 287 285 279 249 258 284 295 296
165 168 169 169 166 165 164 159 159 162 171 164 161 168 182 188 191 180 184 191 190 182 163 153 158 121 87 77 285 311 293 286 276 271 287 318 334 352 354 341 325 319 297
167 169 162 166 164 162 156 151 156 163 165 157 158 162 170 194 179 158 177 179 162 169 169 154 139 110 108 109 98 71 62 44 344 35 20 15 2 2 0 349 345 333 316
153 155 150 156 164 163 162 153 156 160 166 164 159 150 142 103 102 128 150 152 138 146 153 151 157 108 108 118 115 99 69 60 76 82 53 22 10 7 357 343 338 326 301
154 157 157 158 161 155 149 147 147 133 128 128 126 127 118 100 108 123 130 136 117 102 98 102 102 64 50 52 85 85 77 62 66 91 80 61 49 17 354 330 309 300 285
145 151 152 153 152 151 149 144 138 131 122 116 113 107 96 81 80 109 130 133 117 100 84 71 78 74 46 43 76 86 81 75 76 87 93 87 63 34 19 10 1 352 342
123 129 132 135 139 142 140 133 126 124 118 105 90 84 85 75 67 78 116 124 114 103 87 71 63 64 50 48 67 79 77 53 55 74 74 58 55 44 40 35 20 1 348
78 83 94 103 114 118 118 119 117 113 108 103 94 78 68 65 67 68 77 91 104 101 96 83 70 69 64 58 62 71 71 51 43 52 76 70 60 55 49 40 29 9 352
77 81 78 77 86 98 101 104 110 116 113 107 100 90 74 65 65 73 78 77 84 91 91 87 85 82 73 64 63 56 46 42 52 60 63 55 52 45 31 17 10 356 319
80 80 82 81 76 78 87 92 103 108 110 111 108 100 87 77 72 74 80 82 83 91 96 102 99 89 83 75 64 53 47 46 45 51 52 48 44 34 360 356 351 334 311
89 87 87 86 79 69 67 68 71 74 95 100 99 101 93 80 71 74 87 89 91 93 99 105 101 82 74 67 60 54 57 52 44 42 36 32 21 20 16 9 4 354 347
97 93 90 85 84 75 65 54 62 54 65 88 92 96 99 90 67 69 83 81 82 85 90 108 96 83 76 70 65 58 54 44 38 34 30 25 23 21 18 13 7 357 0
104 99 97 97 95 94 91 76 59 63 63 66 72 86 81 85 84 72 66 62 60 56 63 74 72 65 63 63 63 62 57 46 30 28 30 25 19 13 10 9 9 8 1
105 105 104 105 105 103 101 100 92 71 63 62 65 75 84 84 76 69 60 48 41 52 71 73 70 65 59 59 57 55 56 49 31 26 29 25 14 5 9 10 11 8 357
95 95 101 102 103 103 104 106 106 103 93 80 65 67 75 76 70 62 58 59 68 71 70 71 70 67 59 53 53 50 48 47 34 22 29 22 11 4 6 4 8 8 346
101 103 103 105 105 106 108 108 106 106 107 107 105 85 77 83 71 55 52 61 70 70 69 66 63 63 60 55 51 45 45 47 32 18 28 15 4 359 3 359 354 350 339
96 100 106 111 110 110 110 108 107 106 104 104 104 104 113 110 93 82 73 65 68 68 64 64 61 60 55 47 44 39 41 42 31 22 17 7 3 359 355 351 350 348 343
108 109 110 109 108 107 105 104 104 104 103 103 98 87 83 94 89 83 79 72 69 69 65 61 63 63 57 44 38 38 40 38 27 16 9 360 355 351 344 345 349 348 342
115 117 111 104 102 101 104 106 110 113 117 117 117 109 94 88 83 83 81 76 74 70 68 59 60 59 51 42 40 39 38 32 20 7 356 349 343 342 346 350 351 342 336
108 108 105 102 102 107 107 105 106 109 109 108 110 112 105 95 92 90 87 82 77 74 72 67 63 58 54 52 53 51 40 25 5 356 350 344 337 337 343 345 341 339 342
106 107 107 107 108 108 106 106 107 107 106 107 106 103 102 98 95 94 93 90 84 80 78 77 73 69 66 60 57 55 45 25 6 355 346 328 324 335 343 338 335 340 339
109 110 113 115 113 109 108 109 108 108 111 110 111 110 108 107 106 105 104 98 96 92 86 84 84 77 73 69 61 54 36 22 11 355 336 322 319 330 340 333 334 334 339
106 106 107 108 106 105 108 108 105 104 103 106 107 107 109 111 111 108 105 104 105 98 93 91 91 90 85 82 77 61 30 11 358 349 334 311 309 331 343 331 334 338 339
Height
1510 1511 1513 1515 1517 1520 1522 1525 1528 1531 1533 1536 1539 1541 1543 1545 1548 1550 1552 1554 1556 1557 1559 1560 1561 1562 1562 1563 1565 1565 1566 1567 1567 1568 1569 1569 1569 1569 1569 1569 1569 1569 1568
1509 1511 1512 1515 1517 1519 1521 1523 1526 1529 1531 1534 1537 1539 1541 1543 1545 1547 1549 1551 1553 1554 1555 1556 1557 1559 1559 1560 1561 1562 1563 1564 1565 1565 1565 1566 1566 1566 1566 1566 1566 1565 1565
1509 1511 1512 1514 1516 1518 1520 1522 1525 1527 1529 1532 1534 1536 1538 1540 1542 1544 1546 1548 1550 1551 1552 1553 1554 1555 1556 1557 1558 1558 1559 1560 1561 1561 1562 1562 1562 1563 1563 1563 1562 1562 1561
1509 1510 1512 1513 1515 1517 1519 1521 1523 1525 1527 1529 1531 1534 1536 1538 1539 1541 1543 1545 1547 1548 1549 1550 1551 1552 1553 1553 1554 1555 1555 1556 1557 1558 1558 1558 1559 1559 1559 1559 1559 1558 1558
1509 1510 1511 1513 1514 1516 1518 1520 1522 1523 1525 1528 1529 1531 1533 1535 1537 1538 1540 1542 1543 1545 1546 1547 1548 1549 1550 1550 1551 1551 1552 1552 1553 1554 1554 1554 1555 1555 1555 1555 1555 1555 1554
1508 1510 1511 1512 1513 1515 1516 1518 1520 1522 1524 1526 1527 1529 1531 1533 1534 1536 1538 1539 1540 1542 1543 1544 1545 1546 1546 1547 1548 1548 1549 1549 1550 1550 1550 1551 1551 1551 1552 1552 1551 1551 1550
1507 1508 1510 1511 1512 1513 1515 1516 1518 1520 1522 1523 1525 1527 1528 1530 1532 1533 1535 1537 1538 1539 1540 1541 1542 1543 1543 1544 1545 1545 1546 1546 1547 1547 1547 1548 1549 1549 1548 1548 1548 1548 1547
1506 1507 1508 1509 1510 1512 1513 1515 1516 1518 1520 1521 1523 1524 1526 1528 1529 1531 1533 1534 1535 1536 1537 1538 1539 1540 1540 1542 1542 1542 1543 1543 1543 1544 1545 1545 1546 1546 1546 1546 1545 1545 1545
1505 1506 1507 1508 1509 1510 1511 1513 1515 1516 1518 1520 1521 1523 1524 1526 1527 1529 1530 1531 1532 1533 1534 1535 1536 1537 1538 1539 1539 1540 1540 1541 1541 1542 1543 1543 1544 1544 1543 1543 1542 1542 1541
1504 1505 1506 1507 1508 1509 1510 1512 1514 1515 1517 1518 1520 1521 1523 1524 1525 1526 1528 1529 1530 1531 1532 1533 1534 1535 1536 1536 1537 1537 1538 1539 1540 1540 1541 1541 1541 1541 1541 1541 1541 1540 1539
1503 1503 1504 1505 1506 1508 1509 1511 1513 1514 1516 1517 1519 1520 1521 1522 1524 1525 1526 1527 1528 1529 1531 1531 1532 1533 1534 1535 1535 1536 1537 1538 1538 1539 1539 1540 1540 1540 1540 1540 1539 1538 1538
1502 1502 1504 1505 1506 1507 1509 1510 1512 1514 1515 1517 1518 1519 1521 1522 1523 1524 1526 1527 1528 1529 1529 1530 1531 1532 1533 1534 1535 1535 1536 1537 1538 1538 1539 1539 1539 1539 1539 1539 1538 1537 1536
1501 1502 1503 1504 1506 1507 1509 1510 1512 1514 1515 1517 1518 1519 1521 1522 1524 1525 1526 1527 1528 1529 1530 1531 1532 1533 1533 1534 1535 1535 1536 1537 1537 1538 1539 1539 1539 1539 1538 1537 1536 1536 1535
1501 1502 1504 1505 1506 1508 1509 1511 1512 1514 1516 1517 1518 1520 1521 1523 1524 1525 1526 1527 1528 1529 1531 1532 1533 1534 1535 1535 1536 1537 1537 1537 1538 1538 1539 1539 1538 1538 1537 1537 1535 1534 1533
1502 1503 1505 1506 1507 1509 1510 1512 1514 1516 1517 1518 1519 1520 1522 1523 1525 1527 1527 1528 1530 1531 1533 1534 1535 1537 1537 1537 1538 1539 1539 1539 1539 1539 1540 1539 1539 1538 1538 1537 1535 1534 1532
1503 1505 1506 1508 1509 1511 1512 1514 1517 1518 1519 1520 1521 1522 1523 1525 1527 1529 1530 1531 1533 1534 1536 1536 1538 1538 1539 1540 1540 1540 1540 1540 1540 1540 1540 1539 1538 1538 1537 1536 1535 1533 1532
1505 1507 1508 1510 1512 1514 1515 1516 1519 1521 1522 1523 1525 1526 1527 1528 1530 1531 1533 1535 1536 1537 1538 1539 1540 1541 1541 1542 1542 1542 1542 1542 1541 1541 1540 1540 1539 1538 1537 1536 1534 1533 1531
1508 1509 1511 1513 1515 1517 1519 1520 1522 1523 1525 1527 1529 1530 1531 1532 1534 1535 1537 1538 1539 1540 1540 1542 1543 1543 1544 1544 1544 1544 1543 1543 1542 1542 1541 1541 1540 1539 1537 1536 1535 1533 1531
1510 1512 1514 1516 1518 1520 1522 1524 1526 1527 1529 1531 1533 1534 1536 1537 1538 1539 1540 1541 1542 1543 1543 1544 1545 1545 1545 1545 1545 1545 1545 1544 1543 1543 1542 1541 1540 1539 1538 1536 1535 1533 1531
1514 1516 1518 1520 1522 1524 1526 1528 1530 1531 1533 1535 1537 1538 1540 1541 1541 1542 1543 1544 1545 1545 1546 1546 1547 1547 1547 1547 1547 1546 1546 1545 1544 1543 1542 1541 1540 1539 1538 1536 1535 1533 1531
1518 1520 1522 1524 1526 1528 1530 1531 1533 1535 1537 1539 1540 1542 1543 1544 1545 1545 1546 1547 1547 1548 1548 1549 1549 1548 1548 1548 1547 1547 1546 1545 1544 1543 1542 1541 1540 1539 1538 1536 1534 1532 1530
1523 1525 1526 1528 1529 1531 1533 1535 1537 1539 1540 1542 1543 1545 1546 1547 1547 1548 1549 1549 1550 1550 1550 1550 1550 1550 1549 1549 1548 1547 1546 1544 1543 1542 1541 1540 1540 1539 1537 1535 1533 1531 1529
1527 1529 1530 1532 1533 1535 1537 1539 1541 1543 1544 1545 1546 1547 1548 1549 1550 1550 1551 1552 1552 1552 1552 1552 1551 1551 1550 1549 1548 1547 1545 1544 1543 1542 1540 1540 1539 1538 1537 1535 1533 1531 1528
1531 1532 1534 1536 1537 1539 1541 1542 1544 1545 1547 1548 1549 1550 1550 1551 1552 1552 1553 1553 1553 1553 1553 1553 1552 1551 1550 1549 1548 1547 1545 1544 1543 1541 1540 1539 1538 1537 1536 1534 1532 1530 1527
1534 1536 1537 1539 1541 1542 1544 1545 1547 1548 1549 1550 1551 1552 1552 1553 1553 1554 1554 1554 1554 1554 1554 1554 1553 1552 1551 1550 1548 1547 1546 1544 1542 1541 1540 1539 1537 1536 1535 1533 1531 1529 1526
1538 1539 1541 1542 1543 1545 1546 1548 1549 1550 1551 1551 1552 1553 1554 1554 1554 1555 1555 1555 1555 1555 1555 1554 1554 1552 1551 1550 1548 1547 1545 1544 1542 1541 1540 1538 1537 1536 1534 1532 1530 1528 1525